Regional Weather Roundup
Issued by NWS Glasgow, MT

Home | Current Version | Previous Version | Text Only | Print | Product List | Glossary On
Versions: 1 2 3 4 5 6 7 8 9 10 11 12 13 14 15 16 17 18 19 20 21 22 23 24 25 26 27 28 29 30 31 32 33 34 35 36 37 38 39 40 41 42 43 44 45 46 47 48 49 50
921
ASUS45 KGGW 230315
RWRGGW
HOURLY REGIONAL WEATHER ROUNDUP FOR NORTHEAST MONTANA
NATIONAL WEATHER SERVICE GLASGOW MONTANA
800 PM MST WED FEB 22 2017

NOTE: "FAIR" INDICATES FEW OR NO CLOUDS BELOW 12,000 FEET WITH NO
SIGNIFICANT WEATHER AND/OR OBSTRUCTIONS TO VISISBILITY.

NORTHEAST MONTANA


CITY           SKY/WX    TMP DP  RH WIND       PRES   REMARKS
GLASGOW        CLOUDY    26  24  92 NE7       30.00R
PLENTYWOOD       N/A     33  24  69 W1          N/A
WOLF POINT     CLOUDY    30  27  88 CALM      30.02R
JORDAN           N/A     28  25  88 E5        29.98R
SIDNEY         CLOUDY    29  27  92 NW3       30.01R
GLENDIVE       CLOUDY    28  26  92 CALM      30.00R
MALTA            N/A     32  27  81 SE3         N/A
SCOBEY           N/A     30  20  66 CALM      29.95F

FORT PECK REPORTS


CITY           SKY/WX    TMP DP  RH WIND       PRES   REMARKS
FORT PECK        N/A     29  29 100 S3          N/A
THE PINES        N/A     28  27  96 CALM        N/A

SOUTHEAST MONTANA


CITY           SKY/WX    TMP DP  RH WIND       PRES   REMARKS
BILLINGS       LGT SNOW  31  31 100 NE12      29.91S VSB 1
MILES CITY     CLOUDY    31  25  78 NE7       29.98R
BAKER          CLOUDY    29  26  89 N6        29.95S
LIVINGSTON     CLOUDY    30  26  85 E13       29.86S

CENTRAL MONTANA


CITY           SKY/WX    TMP DP  RH WIND       PRES   REMARKS
HAVRE          LGT SNOW  31  29  92 E6        29.97S FOG
LEWISTOWN      FLURRIES  29  27  92 W3        29.90S
GREAT FALLS    CLOUDY    31  26  82 N8        29.94S
CUT BANK       CLOUDY    27  25  92 N5        29.96S
HELENA         CLOUDY    33  27  78 W7        29.89S
BUTTE          LGT SNOW  27  24  89 CALM      29.84S FOG
BOZEMAN        PTCLDY    30  24  78 NW5       29.87R

WESTERN MONTANA


CITY           SKY/WX    TMP DP  RH WIND       PRES   REMARKS
MISSOULA       CLOUDY    33  28  81 N6        29.94S
KALISPELL      NOT AVBL

NORTH DAKOTA


CITY           SKY/WX    TMP DP  RH WIND       PRES   REMARKS
WILLISTON      CLOUDY    30  25  81 VRB3      30.00S
DICKINSON      CLOUDY    27  23  85 N5        29.95R
MINOT          MOCLDY    31  25  78 W8        29.96S
BISMARCK       CLOUDY    33  28  81 N8        29.98R

SOUTHERN SASKATCHEWAN


CITY           SKY/WX    TMP DP  RH WIND       PRES   REMARKS
REGINA         CLOUDY    30  28  93 N9        29.98S
ESTEVAN        CLOUDY    30  28  93 W8        29.98R
SWIFT CURRENT  LGT SNOW  27  25  93 N12G17    29.98R





USA.gov is the U.S. government's official web portal to all federal, state and local government web resources and services.